Flag for Australia Weather past 2 weeks in Hobart, Tasmania, Australia

Now
43 °F

Passing clouds.


Feels Like: 39 °F
Forecast: 41 / 54 °F
Wind: 6 mph from Northeast

Location: Hobart Airport

Current Time: May 22, 2015 at 8:16:05 PM

Latest Report: May 22, 2015 at 8:00 PM


Visibility: N/A

Pressure: 30.33 "Hg

Humidity: 76%

Dew point: 36 °F

Location of HobartLocation

Historic Weather in Hobart — Graph

°F

Hobart temperature yesterday

Maximum temperature yesterday: 52 °F (at 11:00 AM)
Minimum temperature yesterday: 41 °F (at 1:00 AM)
Average temperature yesterday: 47 °F

Past Weeks' High & Low Weather Summary

 TemperatureHumidityPressure
High63 °F (May 19, 1:00 PM)100% (May 20, 6:00 AM)30.57 "Hg (May 20, 6:00 AM)
Low39 °F (May 16, 2:00 AM)36% (May 17, 11:00 AM)29.15 "Hg (May 12, 9:30 AM)
Average51 °F66%29.92 "Hg
* Reported May 7 7:00 PM — May 22 7:00 PM, Hobart, Weather by CustomWeather, © 2015

Note: Actual official high and low records may vary slightly from our data, if they occured in-between our weather recording intervals... More about our weather records

Advertising

Hobart weather history for previous 24 hours

 ConditionsComfort  
Time TempWeatherWind HumidityBarometerVisibility
7:00 PM
Fri, May 22
45 °FPassing clouds.2 mph71%30.33 "HgN/A
6:30 PM45 °FPassing clouds.No wind76%30.30 "HgN/A
6:00 PM46 °FPassing clouds.6 mph71%30.30 "HgN/A
5:30 PM50 °FPassing clouds.9 mph62%30.30 "HgN/A
5:00 PM52 °FPassing clouds.9 mph54%30.30 "HgN/A
4:30 PM54 °FPassing clouds.8 mph51%30.30 "HgN/A
4:00 PM55 °FPassing clouds.10 mph47%30.30 "HgN/A
3:30 PM55 °FPassing clouds.12 mph47%30.27 "HgN/A
3:00 PM57 °FPassing clouds.13 mph44%30.27 "HgN/A
2:30 PM57 °FPassing clouds.10 mph44%30.27 "HgN/A
2:00 PM57 °FPassing clouds.14 mph44%30.27 "HgN/A
1:30 PM57 °FPassing clouds.12 mph48%30.27 "HgN/A
1:00 PM57 °FPassing clouds.12 mph44%30.30 "HgN/A
12:30 PM55 °FPassing clouds.10 mph47%30.30 "HgN/A
12:00 PM55 °FPassing clouds.12 mph47%30.33 "HgN/A
11:30 AM54 °FPassing clouds.9 mph47%30.33 "HgN/A
11:00 AM54 °FPassing clouds.9 mph47%30.33 "HgN/A
10:30 AM54 °FPassing clouds.7 mph51%30.36 "HgN/A
10:00 AM50 °FPassing clouds.7 mph58%30.36 "HgN/A
9:30 AM48 °FPassing clouds.5 mph66%30.36 "HgN/A
9:00 AM46 °FPassing clouds.6 mph71%30.36 "HgN/A
8:30 AM43 °FScattered clouds.7 mph81%30.36 "HgN/A
8:00 AM45 °FPartly sunny.6 mph71%30.36 "HgN/A
7:30 AM45 °FPartly sunny.7 mph71%30.36 "HgN/A
6:30 AM45 °FPartly sunny.6 mph71%30.36 "HgN/A
6:00 AM45 °FPassing clouds.7 mph71%30.33 "HgN/A
5:30 AM46 °FPassing clouds.5 mph71%30.33 "HgN/A
5:00 AM46 °FPassing clouds.No wind66%30.36 "HgN/A
4:30 AM46 °FPassing clouds.No wind71%30.33 "HgN/A
4:00 AM46 °FPassing clouds.3 mph66%30.33 "HgN/A
3:30 AM46 °FPassing clouds.6 mph66%30.33 "HgN/A
3:00 AM48 °FPassing clouds.6 mph62%30.33 "HgN/A
2:30 AM48 °FOvercast.8 mph58%30.36 "HgN/A
2:00 AM48 °FPassing clouds.8 mph58%30.36 "HgN/A
1:30 AM48 °FOvercast.9 mph58%30.36 "HgN/A
1:00 AM48 °FPassing clouds.8 mph58%30.36 "HgN/A
12:30 AM48 °FOvercast.9 mph58%30.36 "HgN/A
12:00 AM50 °FPassing clouds.12 mph54%30.36 "HgN/A
11:30 PM
Thu, May 21
48 °FPassing clouds.7 mph66%30.36 "HgN/A
11:00 PM48 °FPassing clouds.9 mph62%30.36 "HgN/A
10:30 PM48 °FPassing clouds.7 mph71%30.36 "HgN/A
10:00 PM48 °FPassing clouds.7 mph71%30.36 "HgN/A
9:30 PM48 °FPassing clouds.5 mph71%30.36 "HgN/A
9:00 PM48 °FPassing clouds.6 mph71%30.36 "HgN/A
8:30 PM48 °FPassing clouds.7 mph76%30.36 "HgN/A
8:00 PM48 °FPassing clouds.6 mph76%30.36 "HgN/A
Weather by CustomWeather, © 2015

See weather overviewHow to use our weather pages